Airfield :
LOGIN :

Register | Disclaimer

   EN    FR    IT 

 










Legend :    VFR   Marginal VFR   IFR   Intensive IFR   Very Intensive IFR
Visi :
Ceiling :
>= 8 km
>= 3000ft
5 to 8 km
1000 to 3000 ft
1500m to 5 km
500 to 1000 ft
800 to 1500m
200 to 500 ft
< 800m
< 200 ft
Symbols :   Thunderstorms  Fog  Heavy snow  Heavy precipitations  Wind > 20 kt
SIGMETs :     Misc.  Thunderstorms  Icing  Turbulence  Mountain Waves  Volcanic Ashes







- Airport Elevation : 939 ft


LKKB - Kbely Air Base

CURRENT METAR :
  • 250900Z 25003KT 180V330 9999 SCT020 BKN033 16/10 Q1021 NOSIG

EXPIRED METARs :
  • 250800Z 30005KT 270V340 9999 FEW017 BKN049 14/11 Q1021 NOSIG
  • 250700Z 30004KT 250V350 9999 FEW015 OVC033 14/10 Q1020 NOSIG

TAF TAF LKKB
Valid from the 25 at 06:00 until the 26 at 06:00 UTC


250500Z 2506/2606 27006KT 9999 BKN040
TEMPO 2506/2509 SCT015 BKN030
PROB40
TEMPO 2509/2516 SHRA BKN020
PROB30
TEMPO 2522/2606 6000 RA BKN017
No reported NOTAMs for that airfield.



MET'MAP, your aeronautical weather chart ! - Copyright ORBIFLY December 2007 - Disclaimer

ORBIFLY MET'MAP TEAM :

Programming & Development : Alexandra Zaïnal
Concept & Development : Baudouin d'Aumeries
Co-Development & Prog : Marc-Olivier Méhu
Technical & hardware support : Manuel Goepfert

Contact : metmap@orbifly.com




SOURCES & CREDITS :

   NOAA